User: anonymous   Login
Location: Unspecified
(0.0000°N, 0.0000°E)
Time: 16:38:20
(UTC+00:00)
Language:

COSMOS 2496 - Orbit

View from above orbital plane
View from above orbital plane
View from above satellite
View from above satellite

Ground track
Ground track

The orbit data is extracted from the following two-line orbital elements,

1 39761U 14028A   22279.48416447  .00000031  00000-0  15256-3 0  9997
2 39761  82.4449 234.1247 0020012 136.5962 223.6697 12.42894622379913
Epoch (UTC): 06 October 2022 11:37:11
Eccentricity: 0.0020012
inclination: 82.4449°
perigee height: 1478 km
apogee height: 1510 km
right ascension of ascending node: 234.1247°
argument of perigee: 136.5962°
revolutions per day: 12.42894622
mean anomaly at epoch: 223.6697°
orbit number at epoch: 37991

The dashed part of the orbit path shows where the satellite is in the earth's shadow,  

DLR